Location: Monroe
(41.9160°N, 83.3980°W)
Time: 21:36:15
(UTC-04:00)

Amateur Radio Satellites - All Passes

Search period start: 24 April 2015 21:06
Search period end: 25 April 2015 21:06
Location: Monroe, 41.9160°N, 83.3980°W

Satellite Date Start Highest point End Downlink Frequencies (MHz)
Time Altitude Azimuth
COMPASS 1 24 Apr 21:07:33 21:11:17 31° 70° (ENE) 21:15:05 437.405
STRAND 1 24 Apr 21:10:26 21:15:24 53° 288° (WNW) 21:20:21 437.568
Oscar 11 24 Apr 21:15:33 21:18:19 17° 66° (ENE) 21:21:14 145.826/435.025
YUBILEINY 24 Apr 21:25:50 21:32:00 21° 61° (ENE) 21:38:28 435.215
SEEDS 24 Apr 21:30:42 21:34:56 71° 76° (ENE) 21:39:13 437.485
M-CUBED/EXP-1 PRIME 24 Apr 21:32:40 21:34:46 13° 304° (NW) 21:36:38 437.505
CUBESAT XI-V 24 Apr 21:33:39 21:36:07 14° 296° (WNW) 21:38:25 437.345
DELFI C3 24 Apr 21:34:43 21:37:33 19° 67° (ENE) 21:40:31 145.870
CINEMA 3 24 Apr 21:35:29 21:39:31 42° 72° (ENE) 21:43:49 145.822/145.860
CANX-2 24 Apr 21:37:12 21:41:29 74° 259° (WSW) 21:45:49 2200.000
GOMX 1 24 Apr 21:38:37 21:42:44 58° 260° (W) 21:47:03 467.674
CUBEBUG 2 24 Apr 21:42:38 21:46:17 27° 69° (ENE) 21:50:08 437.445
BRITE-PL 24 Apr 21:46:11 21:49:51 30° 265° (W) 21:53:35 437.365/2234.400
CUTE 1.7 + AOD 2 24 Apr 21:46:33 21:50:49 64° 259° (W) 21:55:07 437.475
DX 1 24 Apr 21:47:59 21:50:06 14° 63° (ENE) 21:52:24 434.975-435.025
AAUSAT CUBESAT 2 24 Apr 21:50:33 21:54:46 83° 77° (ENE) 21:59:02 437.432
RS-15 24 Apr 21:54:22 22:03:38 28° 24° (NNE) 22:13:26 29.354- 29.394
VERMONT LUNAR 24 Apr 21:55:16 21:58:32 45° 196° (SSW) 22:01:46 437.305
UWE-3 24 Apr 22:10:35 22:14:42 43° 72° (ENE) 22:18:58 435.000/436.395/437.385
PHONESAT 2.4 24 Apr 22:12:12 22:15:46 64° 189° (S) 22:19:19 2401.200-2431.200
O/OREOS (USA 219) 24 Apr 22:16:57 22:19:07 14° 100° (E) 22:21:29 437.305
SO-50 24 Apr 22:19:49 22:24:29 41° 244° (WSW) 22:29:03 436.795
DOVE 4 24 Apr 22:20:53 22:24:41 31° 265° (W) 22:28:35 437.250
FUNcube-1 24 Apr 22:23:03 22:27:11 46° 72° (ENE) 22:31:28 145.935
50 SAT 24 Apr 22:26:28 22:28:43 15° 66° (ENE) 22:31:08 437.505
UKube-1 24 Apr 22:30:36 22:34:30 35° 70° (ENE) 22:38:28 .
COMPASS 1 24 Apr 22:43:39 22:47:02 22° 267° (W) 22:50:21 437.405
ZACube-1 24 Apr 22:47:47 22:52:06 88° 77° (ENE) 22:56:35 437.345
VELOX 1 24 Apr 22:49:10 22:52:51 27° 69° (ENE) 22:56:37 145.980
Oscar 11 24 Apr 22:49:59 22:54:10 46° 261° (W) 22:58:24 145.826/435.025
HUMSAT D 24 Apr 22:51:50 22:55:52 46° 73° (ENE) 23:00:00 437.325/437.525
HO-68 24 Apr 22:52:33 22:58:16 24° 269° (W) 23:03:46 435.675
CUBEBUG 1 24 Apr 22:58:45 23:01:25 17° 66° (ENE) 23:04:15 437.445
AISAT 24 Apr 23:06:07 23:10:14 42° 71° (ENE) 23:14:25 437.250
DELFI C3 24 Apr 23:08:42 23:12:29 35° 263° (W) 23:16:16 145.870
Cosmos 2491 24 Apr 23:10:43 23:18:45 45° 88° (E) 23:26:57 435.465 / 435.565
CINEMA 3 24 Apr 23:14:02 23:17:03 18° 270° (W) 23:20:00 145.822/145.860
ANTELSAT 24 Apr 23:16:10 23:19:35 20° 91° (E) 23:23:06 437.575/2403.000
CUBEBUG 2 24 Apr 23:19:09 23:22:56 28° 266° (W) 23:26:48 437.445
YUBILEINY 24 Apr 23:21:20 23:30:08 84° 264° (W) 23:38:50 435.215
DX 1 24 Apr 23:21:39 23:25:55 59° 259° (W) 23:30:13 434.975-435.025
VERMONT LUNAR 24 Apr 23:33:41 23:35:33 14° 210° (SSW) 23:37:20 437.305
QB50P1 24 Apr 23:36:39 23:38:56 14° 90° (E) 23:41:25 145.935-145.965
ESTCUBE 1 24 Apr 23:41:09 23:45:32 53° 73° (ENE) 23:49:57 437.505/2401.250
UWE-3 24 Apr 23:48:32 23:51:31 17° 270° (W) 23:54:26 435.000/436.395/437.385
PHONESAT 2.4 24 Apr 23:50:39 23:53:43 26° 204° (SSW) 23:56:45 2401.200-2431.200
O/OREOS (USA 219) 24 Apr 23:53:33 23:58:06 60° 296° (WNW) 00:02:37 437.305
TISAT 1 24 Apr 23:56:58 23:59:14 15° 65° (ENE) 00:01:41 437.305
50 SAT 24 Apr 23:59:21 00:03:12 45° 261° (W) 00:07:05 437.505
FUNcube-1 25 Apr 00:01:03 00:03:51 16° 271° (W) 00:06:32 145.935
QB50P2 25 Apr 00:01:18 00:04:59 27° 95° (E) 00:08:42 145.880/145.840
TIGRISAT 25 Apr 00:06:02 00:10:44 64° 101° (E) 00:15:21 435.000
RS-15 25 Apr 00:07:09 00:18:38 71° 52° (NE) 00:30:41 29.354- 29.394
UKube-1 25 Apr 00:07:28 00:10:46 21° 267° (W) 00:14:00 .
UNISAT 6 25 Apr 00:09:52 00:14:35 72° 101° (E) 00:19:15 437.425
NANOSAT C BR1 25 Apr 00:19:53 00:23:58 42° 98° (E) 00:28:04 145.865
SPROUT 25 Apr 00:21:57 00:25:46 33° 71° (ENE) 00:29:39 437.525
POPSAT HIP 1 25 Apr 00:22:34 00:26:43 46° 99° (E) 00:30:52 437.405
VELOX 1 25 Apr 00:25:34 00:29:22 28° 265° (W) 00:33:09 145.980
HUMSAT D 25 Apr 00:29:23 00:31:57 15° 270° (W) 00:34:23 437.325/437.525
CUBEBUG 1 25 Apr 00:33:18 00:37:29 46° 261° (W) 00:41:39 437.445
Cosmos 2504 25 Apr 00:39:41 00:46:43 32° 68° (ENE) 00:53:27 435.465 / 435.565
AISAT 25 Apr 00:44:01 00:47:05 18° 269° (W) 00:50:01 437.250
POLYITAN 1 25 Apr 00:51:46 00:56:06 81° 284° (WNW) 01:00:25 437.675
ANTELSAT 25 Apr 00:52:07 00:56:36 42° 288° (WNW) 01:00:58 437.575/2403.000
BUGSAT 1 25 Apr 00:52:30 00:56:38 70° 102° (ESE) 01:00:48 437.445
DUCHIFAT 1 25 Apr 00:54:01 00:58:19 80° 284° (WNW) 01:02:36 145.980
Cosmos 2491 25 Apr 01:07:35 01:15:44 41° 289° (WNW) 01:23:51 435.465 / 435.565
ITUPSAT 1 25 Apr 01:10:07 01:13:05 17° 64° (ENE) 01:16:13 437.325
QB50P1 25 Apr 01:10:59 01:15:10 50° 287° (WNW) 01:19:18 145.935-145.965
AIST 1 25 Apr 01:18:08 01:22:07 39° 93° (E) 01:26:08
ESTCUBE 1 25 Apr 01:20:08 01:22:48 15° 270° (W) 01:25:17 437.505/2401.250
YUBILEINY 25 Apr 01:20:39 01:25:46 16° 282° (WNW) 01:30:20 435.215
TISAT 1 25 Apr 01:30:35 01:34:40 50° 261° (W) 01:38:46 437.305
QB50P2 25 Apr 01:37:11 01:40:49 26° 291° (WNW) 01:44:23 145.880/145.840
BEESAT 25 Apr 01:40:06 01:44:20 33° 69° (ENE) 01:48:37 436.000
SWISSCUBE 25 Apr 01:42:18 01:46:41 37° 70° (ENE) 01:51:05 437.505
TIGRISAT 25 Apr 01:44:15 01:47:00 15° 297° (WNW) 01:49:33 435.000
UNISAT 6 25 Apr 01:48:26 01:50:50 14° 298° (WNW) 01:53:00 437.425
NANOSAT C BR1 25 Apr 01:56:35 01:59:32 18° 294° (WNW) 02:02:22 145.865
SPROUT 25 Apr 01:58:39 02:01:58 21° 267° (W) 02:05:12 437.525
POPSAT HIP 1 25 Apr 01:59:27 02:02:17 17° 294° (WNW) 02:04:58 437.405
RS-15 25 Apr 02:20:18 02:30:30 36° 252° (WSW) 02:40:42 29.354- 29.394
BUGSAT 1 25 Apr 02:30:20 02:31:38 11° 297° (WNW) 02:32:43 437.445
Cosmos 2504 25 Apr 02:32:48 02:40:34 51° 270° (W) 02:47:44 435.465 / 435.565
ITUPSAT 1 25 Apr 02:45:51 02:50:35 57° 259° (W) 02:55:20 437.325
STARS 25 Apr 02:47:52 02:50:52 19° 66° (ENE) 02:54:00 437.465
AIST 1 25 Apr 02:57:01 03:00:00 18° 290° (WNW) 03:02:51
Oscar 19 25 Apr 02:58:22 03:03:33 64° 101° (E) 03:08:43 437.125/150
BEESAT 3 25 Apr 03:15:21 03:18:49 28° 115° (ESE) 03:22:23 437.485
BEESAT 2 25 Apr 03:15:52 03:19:08 24° 114° (ESE) 03:22:31 435.950
BEESAT 25 Apr 03:18:07 03:22:13 27° 266° (W) 03:26:14 436.000
DANDE 25 Apr 03:19:42 03:22:13 12° 58° (ENE) 03:25:25 436.750
SWISSCUBE 25 Apr 03:20:45 03:24:39 24° 267° (W) 03:28:28 437.505
KKS-1 25 Apr 03:25:58 03:30:22 73° 75° (ENE) 03:34:49 437.445
ITAMSAT 1 25 Apr 03:31:19 03:36:09 39° 97° (E) 03:41:00 435.822/435.867
GONETS M04 25 Apr 03:43:51 03:51:45 36° 69° (ENE) 03:59:45
Gurwin Techsat 1B 25 Apr 03:56:00 04:01:16 59° 100° (E) 04:06:30 435.225
HORYU 2 25 Apr 04:03:23 04:05:15 13° 89° (E) 04:07:20 437.375
AIST 2 25 Apr 04:10:52 04:14:32 29° 115° (ESE) 04:18:18 435.215
AO-7 25 Apr 04:14:03 04:19:13 18° 88° (E) 04:24:52 29.400- 29.500
STARS 25 Apr 04:22:53 04:27:03 42° 262° (W) 04:31:15 437.465
CUSAT 1 25 Apr 04:25:43 04:32:46 44° 73° (ENE) 04:40:40 437.405
Oscar 19 25 Apr 04:39:00 04:42:27 18° 297° (WNW) 04:45:43 437.125/150
JAS-2 25 Apr 04:48:13 04:53:31 28° 91° (E) 04:58:26 435.910
BEESAT 3 25 Apr 04:53:08 04:56:47 29° 312° (NW) 05:00:26 437.485
BEESAT 2 25 Apr 04:53:19 04:57:06 34° 311° (NW) 05:00:56 435.950
DANDE 25 Apr 04:59:38 05:06:50 59° 76° (ENE) 05:15:14 436.750
Cosmos 2499 25 Apr 05:04:23 05:09:12 18° 59° (ENE) 05:14:10 435.465 / 435.565
KKS-1 25 Apr 05:06:45 05:07:38 10° 273° (W) 05:08:13 437.445
ITAMSAT 1 25 Apr 05:11:12 05:15:30 27° 294° (WNW) 05:19:43 435.822/435.867
M-CUBED/EXP-1 PRIME 25 Apr 05:12:16 05:14:19 13° 56° (NE) 05:16:35 437.505
MOZHAYETS 4 25 Apr 05:23:30 05:28:10 83° 74° (ENE) 05:32:51
Gurwin Techsat 1B 25 Apr 05:37:04 05:40:50 19° 297° (WNW) 05:44:26 435.225
HORYU 2 25 Apr 05:37:56 05:42:24 62° 286° (WNW) 05:46:49 437.375
GONETS M04 25 Apr 05:40:27 05:48:59 52° 270° (W) 05:57:21
AIST 2 25 Apr 05:49:16 05:53:06 30° 312° (NW) 05:56:55 435.215
AUBIESAT-1 25 Apr 05:53:09 05:57:06 27° 63° (ENE) 06:01:09 437.475
AO-7 25 Apr 06:04:52 06:13:15 90° 289° (WNW) 06:21:37 29.400- 29.500
CUSAT 1 25 Apr 06:08:28 06:15:34 44° 268° (W) 06:23:13 437.405
PRISM 25 Apr 06:14:52 06:17:00 14° 64° (ENE) 06:19:18 437.425
Cubesat XI-IV 25 Apr 06:27:59 06:28:49 10° 86° (E) 06:30:02 437.490
JAS-2 25 Apr 06:32:49 06:38:56 44° 292° (WNW) 06:44:18 435.910
DANDE 25 Apr 06:43:27 06:49:56 32° 270° (W) 06:56:58 436.750
M-CUBED/EXP-1 PRIME 25 Apr 06:43:43 06:48:32 90° 246° (WSW) 06:53:25 437.505
STRAND 1 25 Apr 06:48:25 06:52:42 29° 67° (ENE) 06:57:05 437.568
Cosmos 2499 25 Apr 06:55:52 07:03:46 88° 263° (W) 07:11:04 435.465 / 435.565
CUBESAT XI-V 25 Apr 06:58:07 07:02:42 65° 75° (ENE) 07:07:18 437.345
AUBIESAT-1 25 Apr 07:27:16 07:31:43 38° 259° (WSW) 07:36:11 437.475
PRISM 25 Apr 07:48:00 07:52:05 53° 260° (W) 07:56:10 437.425
CUTE-I 25 Apr 07:55:01 08:00:21 73° 102° (ESE) 08:05:40 437.470
AO-7 25 Apr 07:59:02 08:05:07 22° 307° (NW) 08:10:56 29.400- 29.500
Cubesat XI-IV 25 Apr 08:04:27 08:09:49 88° 103° (ESE) 08:15:09 437.490
PCSat 25 Apr 08:04:31 08:07:16 15° 105° (ESE) 08:10:18 145.827
M-CUBED/EXP-1 PRIME 25 Apr 08:23:07 08:24:06 10° 269° (W) 08:24:44 437.505
O/OREOS (USA 219) 25 Apr 08:24:21 08:28:15 28° 58° (ENE) 08:32:09 437.305
STRAND 1 25 Apr 08:27:08 08:31:49 35° 263° (W) 08:36:28 437.568
CUBESAT XI-V 25 Apr 08:38:32 08:40:41 13° 272° (W) 08:42:35 437.345
Cosmos 2499 25 Apr 08:51:35 08:55:44 15° 282° (WNW) 08:59:17 435.465 / 435.565
SEEDS 25 Apr 09:17:06 09:18:27 12° 88° (E) 09:20:01 437.485
Cosmos 2491 25 Apr 09:20:50 09:27:17 23° 62° (ENE) 09:34:04 435.465 / 435.565
CANX-2 25 Apr 09:23:12 09:26:11 19° 91° (E) 09:29:17 2200.000
CINEMA 3 25 Apr 09:31:48 09:33:26 12° 86° (E) 09:35:24 145.822/145.860
CUTE 1.7 + AOD 2 25 Apr 09:32:14 09:35:28 21° 92° (E) 09:38:47 437.475
AAUSAT CUBESAT 2 25 Apr 09:35:11 09:37:00 13° 89° (E) 09:39:00 437.432
CUTE-I 25 Apr 09:36:38 09:39:54 16° 299° (WNW) 09:42:58 437.470
GOMX 1 25 Apr 09:39:01 09:43:52 41° 97° (E) 09:48:57 467.674
PCSat 25 Apr 09:44:41 09:50:06 77° 301° (WNW) 09:55:34 145.827
Cubesat XI-IV 25 Apr 09:46:41 09:49:15 13° 300° (WNW) 09:51:34 437.490
BRITE-PL 25 Apr 09:48:29 09:53:34 75° 102° (ESE) 09:59:01 437.365/2234.400
O/OREOS (USA 219) 25 Apr 10:03:45 10:07:38 28° 256° (WSW) 10:11:26 437.305
ANTELSAT 25 Apr 10:15:54 10:19:04 19° 65° (ENE) 10:22:25 437.575/2403.000
HO-68 25 Apr 10:17:37 10:24:47 66° 103° (ESE) 10:31:55 435.675
DOVE 4 25 Apr 10:18:04 10:23:09 66° 100° (E) 10:28:25 437.250
COMPASS 1 25 Apr 10:25:48 10:29:58 56° 100° (E) 10:34:05 437.405
YUBILEINY 25 Apr 10:28:28 10:34:45 24° 81° (E) 10:41:25 435.215
QB50P1 25 Apr 10:30:56 10:32:35 12° 63° (ENE) 10:34:25 145.935-145.965
ZACube-1 25 Apr 10:37:06 10:40:11 18° 90° (E) 10:43:25 437.345
Oscar 11 25 Apr 10:37:09 10:40:58 30° 95° (E) 10:44:48 145.826/435.025
DELFI C3 25 Apr 10:47:53 10:51:23 28° 95° (E) 10:54:54 145.870
SEEDS 25 Apr 10:50:32 10:54:44 61° 285° (WNW) 10:58:53 437.485
QB50P2 25 Apr 10:55:02 10:58:18 23° 68° (ENE) 11:01:39 145.880/145.840
CANX-2 25 Apr 10:58:19 11:02:18 38° 288° (WNW) 11:06:14 2200.000
TIGRISAT 25 Apr 11:04:55 11:09:19 57° 74° (ENE) 11:13:54 435.000
CINEMA 3 25 Apr 11:06:18 11:11:17 81° 285° (WNW) 11:16:20 145.822/145.860
CUTE 1.7 + AOD 2 25 Apr 11:07:37 11:11:30 33° 289° (WNW) 11:15:18 437.475
AAUSAT CUBESAT 2 25 Apr 11:08:55 11:13:02 53° 286° (WNW) 11:17:05 437.432
UNISAT 6 25 Apr 11:08:56 11:13:25 65° 74° (ENE) 11:18:02 437.425
CUBEBUG 2 25 Apr 11:08:57 11:13:41 60° 100° (E) 11:18:24 437.445
DX 1 25 Apr 11:10:12 11:13:35 22° 94° (E) 11:17:03 434.975-435.025
NANOSAT C BR1 25 Apr 11:12:57 11:16:43 33° 70° (ENE) 11:20:33 145.865
POPSAT HIP 1 25 Apr 11:15:50 11:19:41 36° 71° (ENE) 11:23:35 437.405
Cosmos 2491 25 Apr 11:16:30 11:25:22 81° 264° (W) 11:34:12 435.465 / 435.565
GOMX 1 25 Apr 11:17:34 11:21:49 26° 292° (WNW) 11:26:09 467.674
AIST 1 25 Apr 11:27:18 11:28:01 10° 65° (ENE) 11:28:58
BRITE-PL 25 Apr 11:28:42 11:31:40 15° 296° (WNW) 11:34:30 437.365/2234.400
PCSat 25 Apr 11:31:21 11:34:32 15° 322° (NW) 11:37:32 145.827
BEESAT 3 25 Apr 11:33:42 11:36:57 22° 45° (NE) 11:40:12 437.485
BEESAT 2 25 Apr 11:34:36 11:37:39 20° 43° (NE) 11:40:45 435.950
UWE-3 25 Apr 11:36:08 11:40:52 88° 291° (WNW) 11:45:34 435.000/436.395/437.385
ESTCUBE 1 25 Apr 11:36:18 11:37:07 11° 87° (E) 11:38:15 437.505/2401.250
50 SAT 25 Apr 11:36:43 11:39:46 21° 93° (E) 11:42:52 437.505
BUGSAT 1 25 Apr 11:42:59 11:46:50 49° 73° (ENE) 11:50:45 437.445
POLYITAN 1 25 Apr 11:44:57 11:49:09 79° 77° (ENE) 11:53:25 437.675
DUCHIFAT 1 25 Apr 11:46:34 11:50:45 79° 76° (ENE) 11:54:59 145.980
FUNcube-1 25 Apr 11:47:01 11:51:39 86° 283° (WNW) 11:56:13 145.935
ISS 25 Apr 11:50:01 11:50:56 11° 130° (SE) 11:51:57 145.825
ANTELSAT 25 Apr 11:51:12 11:55:33 45° 262° (W) 12:00:00 437.575/2403.000
UKube-1 25 Apr 11:53:20 11:57:38 62° 101° (E) 12:01:56 .
DOVE 4 25 Apr 11:57:10 12:00:29 17° 295° (WNW) 12:03:41 437.250
COMPASS 1 25 Apr 12:03:04 12:05:14 14° 295° (WNW) 12:07:13 437.405
QB50P1 25 Apr 12:03:48 12:07:59 64° 260° (W) 12:12:12 145.935-145.965
HO-68 25 Apr 12:06:14 12:12:01 26° 301° (WNW) 12:17:36 435.675
HUMSAT D 25 Apr 12:11:02 12:15:25 87° 102° (ESE) 12:19:44 437.325/437.525
ZACube-1 25 Apr 12:12:24 12:16:50 46° 288° (WNW) 12:21:12 437.345
Oscar 11 25 Apr 12:13:28 12:17:04 25° 292° (WNW) 12:20:33 145.826/435.025
VELOX 1 25 Apr 12:14:57 12:19:17 52° 99° (E) 12:23:39 145.980
CUBEBUG 1 25 Apr 12:21:54 12:25:43 30° 96° (E) 12:29:35 437.445
YUBILEINY 25 Apr 12:21:58 12:30:48 75° 280° (W) 12:39:39 435.215
DELFI C3 25 Apr 12:23:12 12:26:26 23° 291° (WNW) 12:29:33 145.870
QB50P2 25 Apr 12:30:15 12:34:03 32° 264° (W) 12:37:51 145.880/145.840
AIST 2 25 Apr 12:32:09 12:35:38 24° 45° (NE) 12:39:08 435.215
AISAT 25 Apr 12:32:35 12:37:04 84° 103° (ESE) 12:41:33 437.250
SO-50 25 Apr 12:34:02 12:38:36 62° 120° (ESE) 12:43:22 436.795
Oscar 19 25 Apr 12:39:49 12:41:58 13° 60° (ENE) 12:44:23 437.125/150
TIGRISAT 25 Apr 12:44:02 12:46:33 14° 272° (W) 12:48:54 435.000
DX 1 25 Apr 12:45:58 12:49:55 33° 290° (WNW) 12:53:49 434.975-435.025
CINEMA 3 25 Apr 12:46:33 12:47:47 11° 299° (WNW) 12:48:45 145.822/145.860
CUBEBUG 2 25 Apr 12:46:54 12:49:56 16° 296° (WNW) 12:52:48 437.445
UNISAT 6 25 Apr 12:48:43 12:50:46 12° 273° (W) 12:52:35 437.425
NANOSAT C BR1 25 Apr 12:49:27 12:52:40 21° 267° (W) 12:55:49 145.865
POPSAT HIP 1 25 Apr 12:52:37 12:55:43 19° 268° (W) 12:58:43 437.405
AIST 1 25 Apr 13:02:02 13:06:16 68° 264° (W) 13:10:30
ESTCUBE 1 25 Apr 13:10:07 13:14:37 73° 284° (WNW) 13:19:04 437.505/2401.250
50 SAT 25 Apr 13:11:02 13:14:39 30° 289° (WNW) 13:18:10 437.505
BEESAT 3 25 Apr 13:11:16 13:15:08 40° 243° (WSW) 13:18:54 437.485
BEESAT 2 25 Apr 13:12:03 13:16:02 47° 242° (WSW) 13:19:56 435.950
TISAT 1 25 Apr 13:15:11 13:18:36 24° 94° (E) 13:22:05 437.305
UWE-3 25 Apr 13:15:39 13:16:44 11° 299° (WNW) 13:17:34 435.000/436.395/437.385
Cosmos 2491 25 Apr 13:16:02 13:20:59 16° 283° (WNW) 13:25:22 435.465 / 435.565
Cosmos 2504 25 Apr 13:18:04 13:25:07 29° 84° (E) 13:32:23 435.465 / 435.565
BUGSAT 1 25 Apr 13:20:45 13:22:41 13° 270° (W) 13:24:26 437.445
ISS 25 Apr 13:23:37 13:26:52 85° 326° (NNW) 13:30:09 145.825
UKube-1 25 Apr 13:31:08 13:33:20 13° 297° (WNW) 13:35:20 .
Gurwin Techsat 1B 25 Apr 13:41:01 13:43:25 14° 60° (ENE) 13:46:05 435.225
SPROUT 25 Apr 13:43:40 13:47:59 64° 100° (E) 13:52:18 437.525
VELOX 1 25 Apr 13:52:42 13:55:30 16° 295° (WNW) 13:58:09 145.980
CUBEBUG 1 25 Apr 13:58:22 14:02:00 25° 292° (WNW) 14:05:33 437.445
AIST 2 25 Apr 14:10:25 14:14:22 37° 243° (WSW) 14:18:12 435.215
AISAT 25 Apr 14:11:59 14:13:04 11° 299° (WNW) 14:13:55 437.250
Oscar 19 25 Apr 14:15:31 14:20:40 87° 254° (WSW) 14:25:54 437.125/150
SO-50 25 Apr 14:15:58 14:19:36 21° 320° (NW) 14:23:15 436.795
YUBILEINY 25 Apr 14:24:22 14:29:33 16° 304° (NW) 14:34:14 435.215
RS-15 25 Apr 14:32:04 14:41:45 41° 109° (ESE) 14:51:48 29.354- 29.394
ITUPSAT 1 25 Apr 14:46:17 14:50:38 35° 97° (E) 14:55:01 437.325
ITAMSAT 1 25 Apr 14:49:32 14:54:39 62° 73° (ENE) 14:59:47 435.822/435.867
TISAT 1 25 Apr 14:50:40 14:54:24 30° 290° (WNW) 14:58:06 437.305
JAS-2 25 Apr 15:00:34 15:05:33 19° 58° (ENE) 15:10:42 435.910
ISS 25 Apr 15:01:05 15:03:37 20° 344° (NNW) 15:06:08 145.825
HORYU 2 25 Apr 15:02:25 15:04:35 14° 63° (ENE) 15:06:56 437.375
Cosmos 2504 25 Apr 15:09:12 15:18:02 66° 282° (WNW) 15:26:46 435.465 / 435.565
AO-7 25 Apr 15:13:21 15:20:04 30° 57° (ENE) 15:26:59 29.400- 29.500
BEESAT 25 Apr 15:17:04 15:21:50 75° 103° (ESE) 15:26:35 436.000
Gurwin Techsat 1B 25 Apr 15:17:26 15:22:45 86° 252° (WSW) 15:28:07 435.225
KKS-1 25 Apr 15:18:21 15:20:36 14° 89° (E) 15:23:04 437.445
SWISSCUBE 25 Apr 15:19:31 15:24:19 85° 101° (E) 15:29:04 437.505
SPROUT 25 Apr 15:21:34 15:23:37 13° 296° (WNW) 15:25:28 437.525
STARS 25 Apr 16:12:14 16:16:16 33° 97° (E) 16:20:18 437.465
ITUPSAT 1 25 Apr 16:24:28 16:28:25 25° 293° (WNW) 16:32:15 437.325
ITAMSAT 1 25 Apr 16:31:24 16:34:40 16° 271° (W) 16:37:43 435.822/435.867
HORYU 2 25 Apr 16:36:17 16:40:45 65° 259° (WSW) 16:45:14 437.375
ISS 25 Apr 16:38:51 16:40:52 15° 4° (N) 16:42:53 145.825
JAS-2 25 Apr 16:41:50 16:49:43 84° 74° (ENE) 16:57:23 435.910
RS-15 25 Apr 16:43:00 16:53:46 60° 312° (NW) 17:04:47 29.354- 29.394
GONETS M04 25 Apr 16:45:28 16:53:18 40° 87° (E) 17:01:20
PCSat 25 Apr 16:50:02 16:53:30 17° 40° (NE) 16:57:06 145.827
KKS-1 25 Apr 16:53:14 16:57:40 56° 287° (WNW) 17:02:04 437.445
BEESAT 25 Apr 16:56:48 16:59:08 13° 298° (WNW) 17:01:15 436.000
SWISSCUBE 25 Apr 16:59:50 17:01:33 12° 299° (WNW) 17:03:02 437.505
Gurwin Techsat 1B 25 Apr 17:02:51 17:03:38 10° 275° (W) 17:04:03 435.225
AO-7 25 Apr 17:04:06 17:12:21 68° 256° (WSW) 17:20:37 29.400- 29.500
Cosmos 2504 25 Apr 17:09:03 17:13:33 14° 305° (NW) 17:17:26 435.465 / 435.565
MOZHAYETS 4 25 Apr 17:19:20 17:22:34 19° 91° (E) 17:25:54
CUSAT 1 25 Apr 17:36:27 17:39:28 26° 87° (E) 17:43:21 437.405
CUTE-I 25 Apr 17:39:51 17:43:06 17° 62° (ENE) 17:46:33 437.470
Cosmos 2499 25 Apr 17:43:02 17:47:17 15° 78° (ENE) 17:52:02 435.465 / 435.565
Cubesat XI-IV 25 Apr 17:48:48 17:52:35 21° 64° (ENE) 17:56:32 437.490
STARS 25 Apr 17:48:57 17:52:35 24° 293° (WNW) 17:56:07 437.465
VERMONT LUNAR 25 Apr 17:49:14 17:52:15 30° 159° (SSE) 17:55:17 437.305
DANDE 25 Apr 18:14:31 18:17:42 48° 94° (E) 18:21:55 436.750
ISS 25 Apr 18:15:02 18:17:59 30° 24° (NNE) 18:20:56 145.825
PHONESAT 2.4 25 Apr 18:16:13 18:19:01 22° 153° (SSE) 18:21:50 2401.200-2431.200
JAS-2 25 Apr 18:29:51 18:35:34 21° 273° (W) 18:40:51 435.910
PCSat 25 Apr 18:32:18 18:37:46 90° 181° (S) 18:43:11 145.827
GONETS M04 25 Apr 18:41:42 18:50:04 46° 287° (WNW) 18:58:28
MOZHAYETS 4 25 Apr 18:55:40 19:00:02 42° 288° (WNW) 19:04:19
CUBESAT XI-V 25 Apr 18:55:47 18:58:29 16° 90° (E) 19:01:22 437.345
RS-15 25 Apr 19:00:27 19:09:12 25° 342° (NNW) 19:18:04 29.354- 29.394
AO-7 25 Apr 19:03:59 19:06:57 12° 277° (W) 19:09:10 29.400- 29.500
HO-68 25 Apr 19:06:09 19:06:51 10° 48° (NE) 19:07:58 435.675
AUBIESAT-1 25 Apr 19:09:48 19:12:06 15° 94° (E) 19:14:28 437.475
CUTE-I 25 Apr 19:17:24 19:22:41 68° 258° (WSW) 19:28:01 437.470
CUSAT 1 25 Apr 19:19:14 19:22:17 22° 296° (WNW) 19:25:57 437.405
VERMONT LUNAR 25 Apr 19:26:07 19:29:30 67° 175° (S) 19:32:52 437.305
SO-50 25 Apr 19:26:14 19:28:27 13° 32° (NNE) 19:30:50 436.795
Cubesat XI-IV 25 Apr 19:27:07 19:32:20 55° 260° (W) 19:37:34 437.490
Cosmos 2499 25 Apr 19:30:26 19:39:17 77° 95° (E) 19:47:56 435.465 / 435.565
PRISM 25 Apr 19:30:51 19:33:48 19° 93° (E) 19:36:50 437.425
ISS 25 Apr 19:51:19 19:54:24 39° 221° (SW) 19:57:27 145.825
PHONESAT 2.4 25 Apr 19:53:21 19:56:53 58° 170° (S) 20:00:26 2401.200-2431.200
M-CUBED/EXP-1 PRIME 25 Apr 20:00:39 20:04:53 69° 106° (ESE) 20:08:44 437.505
DANDE 25 Apr 20:00:44 20:01:53 11° 304° (NW) 20:02:53 436.750
CANX-2 25 Apr 20:17:17 20:19:46 16° 65° (ENE) 20:22:24 2200.000
PCSat 25 Apr 20:18:25 20:20:29 12° 256° (WSW) 20:22:13 145.827
CUTE 1.7 + AOD 2 25 Apr 20:26:05 20:28:52 17° 66° (ENE) 20:31:47 437.475
AAUSAT CUBESAT 2 25 Apr 20:28:13 20:28:47 10° 63° (ENE) 20:29:35 437.432
CUBESAT XI-V 25 Apr 20:31:49 20:36:18 52° 287° (WNW) 20:40:46 437.345
CINEMA 3 25 Apr 20:35:43 20:36:19 10° 61° (ENE) 20:37:09 145.822/145.860
STRAND 1 25 Apr 20:36:40 20:41:46 76° 102° (ESE) 20:46:53 437.568
YUBILEINY 25 Apr 20:39:19 20:41:03 11° 51° (NE) 20:43:28 435.215
AUBIESAT-1 25 Apr 20:43:17 20:47:17 43° 294° (WNW) 20:50:57 437.475
HO-68 25 Apr 20:46:14 20:53:06 51° 67° (ENE) 21:00:02 435.675
GOMX 1 25 Apr 20:48:22 20:52:15 38° 71° (ENE) 20:56:22 467.674
